English version (google)  Retour à l'accueil Ecrire à l'auteur du site Runraid : Michel Jourdan


 Visitez La Boutique 



Les prochaines courses


Les derniers résultats

cliquez pour visualiser la page complète relatant la chronologie des éruptions du Piton de la Fournaise
éruptions Piton de la Fournaise


Ile de La Réunion

 Diagonale des Fous 

Ecrire au créateur du site : Michel Jourdan
Contact


2020-03-07 - Trail des Goyaves 10km - Ile Maurice

Pour consulter le palmarès d'un coureur, un clic sur son nom !

Vous avez des remarques, corrections, ... sur ces résultats , un clic sur --> pour me transmettre toute information concernant les classements


Trail des Goyaves 10km - Ile Maurice - 2020 : classement des 201 finishers
Place Nom Temps Cat. Club Sexe Clt/cat.
Place Nom Temps Cat. Club Sexe Clt/cat.
1 ROUX Freddy 01:09:49 VEM MRI M 2412
2 LUKEA Jeetesh Rao 01:12:52 SEM MRI M 558
3 FRA Janot 01:16:47 SEM MRI M 316
4 THOMAS Tezy 01:17:46 SEM MRI M 2615
5 ITTOO Nilesh 01:19:24 SEM MRI M 2487
6 ROUSSETY Patrick Hubert 01:23:38 SEM MRI M 2680
7 KHELAWON Harris 01:24:55 VEM MRI M 444
8 BEEDAH Ghansiam Vimal 01:25:53 MAM MRI M 1109
9 RATSIFAHARIMANANA Tojonirina Soniah 01:26:01 SEM MRI M 2970
10 ANDRE Ricardo 01:26:08 VEM MRI M 2791
11 LESTE Jean Noel 01:26:25 VEM MRI M 1825
12 MUNGROO Ashley 01:26:28 SEM MRI M 2074
13 DAVIDJOHN O'Brien 01:26:44 SEM MRI M 1698
14 RAMASAWMY Moorghen 01:28:38 VEM MRI M 2653
15 SUMMOOGUM Ramasawmy 01:29:53 VEM MRI M 1911
16 LUKEA Anandrow 01:31:06 MAM MRI M 556
17 SUDDHOO Aneeshrao 01:31:45 JUM MRI M 2758
18 HEMMATH Neezam 01:33:01 MAM MRI M 379
19 LALLMON Pranesh 01:33:23 VEM MRI M 494
20 THUPOSY Linley 01:33:51 MAM MRI M 1534
21 SUZANNE Westley 01:34:02 VEM MRI M 2288
22 EYMERIC Yolaine 01:35:02 SEF MRI F 1ere F 2446
23 PITTEEA Ramjee Swapneel 01:36:20 JUM MRI M 1477
24 GOOHEERAM Christ 01:37:56 JUM MRI M 2623
25 RAIMBOURG Thomas 01:39:39 SEM MRI M 8032
26 PITTEEA Luxmee Priyanka 01:39:42 JUF MRI F 2 F 697
27 APPAYA Avinash 01:40:01 SEM MRI M 2645
28 DHAWOL Devanand 01:41:47 MAM MRI M 1127
29 OUDEUIL Emmanuel 01:43:03 SEM MRI M 2893
30 PROSPER Thierry 01:43:31 SEM MRI M 710
31 DJAMEL Haddadi 01:44:06 SEM MRI M 2710
32 CACHARD Nicolas 01:44:41 SEM MRI M 8041
33 RAMASAWMY Malika 01:45:33 JUF MRI F 3 F 2754
34 SAVOO Vikash 01:46:21 VEM MRI M 2627
35 LUXIMON Raaz 01:46:44 VEM MRI M 2514
36 COX Emmanuel 01:49:49 SEM MRI M 209
37 POCHARD Loreline 01:50:34 SEF FRA F 4 F 8020
38 SEELOCHUND Yoges 01:50:40 SEM MRI M 779
39 SAMALLY Assad 01:51:16 VEM MRI M 2944
40 VENETHETHAN Jean Emmanuel Olivier 01:51:28 SEM MRI M 2804
41 AURMOOGUM Nielsen 01:52:06 JUM MRI M 1474
42 JARRAULT Florian 01:52:29 VEM MRI M 2624
43 PIERRE Benoit 01:52:58 VEM MRI M 2923
44 MATTAROOA Avinash 01:53:02 SEM MRI M 2408
45 FONTAINE Pierre 01:53:17 SEM MRI M 1415
46 RAMEN Koomanee 01:53:27 SEF MRI F 5 F 730
47 ROMAIN Lindsey Alain 01:53:33 VEM MRI M 2002
48 GOODORALLY Harish Rajah 01:54:10 VEM MRI M 2813
49 BETUEL Romain 01:54:30 SEM MRI M 2809
50 MALOO Dave 01:54:39 SEM MRI M 1272
51 RAMCHARAN MALOO Damini 01:55:05 SEF MRI F 6 F 1261
52 THOPLAN Natacha 01:55:22 VEF MRI F 7 F 2778
53 PATEL Deborah 01:55:25 VEF MRI F 8 F 673
54 ORIEUX Thomas 01:55:27 SEM MRI M 2824
55 IMBERT Armand 01:55:52 SEM MRI M 1844
56 ANTOINETTE Stephane 01:55:56 SEM MRI M 1530
57 GABRY Thomas 01:56:09 SEM MRI M 8017
58 BRETECHER Francois 01:56:47 SEM MRI M 2881
59 MUDEHERI Bashir 01:56:53 SEM MRI M 2603
60 MUTTRA Dinesh 01:56:59 SEM MRI M 8021
61 BAYJOU Yaquub 01:57:09 SEM MRI M 1763
62 BEGUIER Cedric 01:57:33 SEM MRI M 1654
63 BAMBOCHE Jeffrey 01:57:35 VEM MRI M 62
64 AURMOOGUM Crisnen 01:58:16 SEM MRI M 49
65 MOREL Karine 01:58:23 VEF MRI F 9 F 617
66 ROUSSETY Louis Didier Hensley 01:58:30 SEM MRI M 1905
67 QUESSY LENNON Melanie 01:58:49 SEF MRI F 10 F 2296
68 DALAIS Arnaud 01:59:02 MAM MRI M 1397
69 PELLOUX Morgane 01:59:06 SEF MRI F 11 F 1200
70 MANSOUR Guimale 02:00:00 JUM MRI M 2862
71 BRETON Antoine 02:00:02 SEM MRI M 8015
72 LASCAR JOSe Annabelle 02:00:36 SEF MRI F 12 F 2956
73 HASSAMAL Roshan 02:01:03 SEM MRI M 1893
74 GAY Lucille 02:01:15 SEF MRI F 13 F 8038
75 AROKEUM Jean Ian 02:01:16 SEM MRI M 1220
76 DHALLAPAH Roubin 02:01:32 VEM MRI M 1137
77 HILL Maretha 02:01:39 VEF MRI F 14 F 2639
78 MATTABADUL Mahendrasingh 02:01:52 SEM MRI M 2634
79 DEERPALSING Nuvin 02:02:06 MAM MRI M 254
80 KISSOONDARY Yogesh 02:02:30 VEM MRI M 1909
81 LEROUX Damien 02:03:45 SEM MRI M 534
82 THOMAS Lauryne 02:04:20 JUF MRI F 15 F 2826
83 RICAUD Daniel 02:04:22 MAM MRI M 749
84 ARMANSIN Thierry 02:04:42 SEM MRI M 1233
85 QUITTERIE Salmon 02:04:52 SEF MRI F 16 F 8022
86 KNIGHT Michael Anthony 02:05:13 MAM MRI M 2643
87 MOOTIEN Pamela 02:05:42 MAF MRI F 17 F 615
88 MARTIN Yannick 02:05:43 VEM MRI M 1502
89 MOTY Vikramjee 02:06:16 VEM MRI M 1273
90 LENGLET Pascal 02:06:59 MAM FRA M 2207
91 MOHABIR Sandesh 02:07:39 SEM MRI M 600
92 CITTA Nadine 02:08:10 MAF MRI F 18 F 1211
93 TENCARAMADON Gerard Pascal 02:08:14 VEM MRI M 2927
94 FAUSTIN Serge Marc 02:08:18 MAM MRI M 305
95 DARUTY RIBOT Virginie 02:09:05 VEF MRI F 19 F 1002
96 PILOT Vincent 02:09:25 VEM MRI M 2903
97 PAZOT Ronny 02:09:41 MAM MRI M 678
98 ROMAIN Clifford 02:10:10 MAM MRI M 2711
99 KANDEERALLY Aslam 02:10:17 SEM MRI M 2566
100 PHILIPPE Robert 02:10:34 MAM MRI M 2518
101 JHUBOO Dev Kumar 02:12:06 VEM MRI M 2086
102 RAO Prashin 02:12:07 SEM MRI M 8012
103 MOHEEPUTH Vinod Sharma 02:12:27 MAM MRI M 1045
104 RAWOTEEA Dominique 02:12:47 SEM MRI M 2822
105 RAMASAMY Joanna Sandra 02:12:56 VEF MRI F 20 F 2169
106 AUNAY Marie Jernifer Amanda 02:13:34 SEF MRI F 21 F 1231
107 DEVIENNE Anabelle 02:14:30 VEF MRI F 22 F 2436
108 DESCELLES Nicolas 02:14:32 VEM MRI M 1264
109 GOPAUL Alvin 02:14:55 VEM MRI M 2812
110 FLOUS Mathilde 02:15:48 SEF MRI F 23 F 8025
111 POCHARD Emilie 02:16:02 VEF FRA F 24 F 8024
112 POCHARD Liselotte 02:16:13 SEF FRA F 25 F 8019
113 CHITCHONG Daniel 02:17:06 MAM MRI M 1381
114 WONG Adrien 02:17:10 SEM MRI M 8014
115 RAMTOHUL Ritesh Sharma 02:17:13 SEM MRI M 738
116 HURRY Khemraj 02:17:16 SEM MRI M 1984
117 COURONNE Pascal 02:17:54 VEM MRI M 1361
118 BALLOO Pavan 02:17:55 SEM MRI M 1472
119 DEWAN Sheilesh 02:18:11 SEM MRI M 2815
120 MAULLOO Pavitra 02:18:16 SEM MRI M 1419
121 CHEEKOUSSEN Nancy 02:18:18 SEF MRI F 26 F 2825
122 CAULEECHURN Yoganand Vikash 02:18:24 MAM MRI M 960
123 HUNNEA Rajiv 02:18:39 VEM MRI M 2490
124 BRUTUS Didier 02:19:25 SEM MRI M 1110
125 BECHET DE LA PESCHARDIERE Margaux 02:19:28 SEF MRI F 27 F 2931
126 PARESARAMDOO Kamini 02:19:32 VEF MRI F 28 F 665
127 LO Yin 02:19:59 VEM MRI M 550
128 LEE Estelle 02:21:45 SEF MRI F 29 F 2482
129 LUXIMON Vikram 02:21:57 SEM MRI M 1668
130 COQUET Arnaud 02:22:14 VEM MRI M 1500
131 ROUILLER Georges 02:22:30 MAM MRI M 8027
132 AUKHEZ Prakash Kumar 02:23:35 SEM MRI M 2600
133 SEBLIN Vanessa 02:23:42 SEF MRI F 30 F 777
134 HONLUE Musa Stephen 02:23:49 SEM MRI M 2601
135 JOLICOEUR Marie Micheline 02:24:50 MAF MRI F 31 F 1268
136 MAGEMBE Valerie 02:25:22 VEF MRI F 32 F 567
137 LAGESSE Marie Helene 02:26:43 MAF MRI F 33 F 485
138 RAGGOO Anand 02:26:45 SEM MRI M 2958
139 LAGESSE Renaud 02:27:38 MAM MRI M 2245
140 LAROQUE Yohanna 02:27:50 SEF MRI F 34 F 1805
141 TAUJOO Jamil 02:28:07 VEM MRI M 2907
142 GYA Dipti 02:28:44 SEF MRI F 35 F 1468
143 DUPRE Giliane 02:30:34 MAF MRI F 36 F 1948
144 GABARD Sebastien 02:30:37 VEM MRI M 2589
145 MOOTIEN Yanon T 02:33:08 MAM MRI M 616
146 RAJHUB Bibi Affiza 02:34:25 VEF MRI F 37 F 2854
147 RICAUD LAGESSE Beatrice 02:34:31 MAF MRI F 38 F 2953
148 MANDARY Kevin 02:35:06 VEM MRI M 1570
149 VON ARNIM Bettina 02:35:29 SEF MRI F 39 F 2793
150 LA HAUSSE DE LALOUVIERE Gillian 02:36:54 MAF MRI F 40 F 466
151 JeRoME FABRICE Charles 02:36:56 SEM MRI M 2498
152 ST PAUL Bernadette 02:36:58 VEF MRI F 41 F 2223
153 SORNUM Danish 02:37:34 SEM MRI M 2889
154 LAW MIN Andrew 02:38:57 SEM MRI M 8013
155 WONG SUN THIONG Valerie 02:39:01 SEF MRI F 42 F 8033
156 LI Virginie Laura 02:39:03 SEF MRI F 43 F 2961
157 RAMDENEE Alvin 02:40:14 SEM MRI M 2834
158 HENRI David 02:40:23 SEM MRI M 2954
159 LESTE Louis 02:40:50 MAM MRI M 1310
160 BASTIEN Pascale 02:41:22 SEF MRI F 44 F 2941
161 CHEUNG HO YAN Bruno 02:42:59 SEM MRI M 2328
162 RHYMAN Ziyaad 02:44:00 SEM MRI M 2945
163 L'EVEQUE Annabelle 02:44:31 SEF MRI F 45 F 2419
164 NADEGE Adelizzi 02:45:18 VEF MRI F 46 F 2766
165 LALJI Jitendiya 02:45:54 MAM MRI M 2387
166 ADELIZZI Frederic 02:46:28 VEM MRI M 8018
167 HURGOBIN Rana 02:47:48 MAM MRI M 2015
168 AH CHAM Li Kim Wong 02:47:49 VEM MRI M 1254
169 CHELMIAH Stephanie 02:50:18 VEF MRI F 47 F 1929
170 SATISH Balchurn 02:52:49 VEM MRI M 2652
171 AUGUSTIN Jean Michel 02:52:51 MAM MRI M 2122
172 ACANTHE Jean Laurent 02:52:53 SEM MRI M 1895
173 RUHOMALLY Rashid 02:54:37 MAM MRI M 763
174 LAMALeTIE Rachel 02:56:01 SEF MRI F 48 F 2828
175 THAILY Isabelle 02:57:38 VEF MRI F 49 F 2299
176 LABONNE Yannick 02:57:39 SEM MRI M 2298
177 LO Zhi Cheong 02:57:43 SEM MRI M 1375
178 MOIKEENAH Jeffrey 03:00:02 VEM MRI M 1365
179 KANAKIAH BASSET Rouna 03:01:06 VEF MRI F 50 F 2315
180 HURGOBIN Leila 03:01:24 MAF MRI F 51 F 2016
181 LECLEZIO Eglantine 03:03:27 VEF MRI F 52 F 8044
182 BRELU BRELU Gilles 03:03:33 MAM MRI M 113
183 KJAER HANSEN Linda 03:04:09 VEF MRI F 53 F 451
184 AZA CHATEAU Marie Chantal Doris 03:04:29 VEF MRI F 54 F 2430
185 UNT WAN Rachel 03:04:44 SEF MRI F 55 F 2946
186 BASTIEN Didier 03:05:00 SEM MRI M 2940
187 AHNEE Karl 03:06:23 SEM MRI M 2801
188 HOOLASH Niazi 03:06:25 VEM MRI M 1185
189 LATEGAN Wendy 03:09:26 VEF MRI F 56 F 1823
190 CALOTTE Annelise 03:12:17 SEF MRI F 57 F 1461
191 STEPHAN Camille 03:12:46 SEF MRI F 58 F 2935
192 LIOONG PHEOW Caroline 03:14:42 VEF MRI F 59 F 2702
193 DUVERGE Sheila 03:17:53 VEF MRI F 60 F 1938
194 NG CHUN HING Steve 03:17:55 VEM MRI M 1987
195 GUILLAUME Marie Stephanie 03:21:20 SEF MRI F 61 F 2955
196 CALLIER Lucille 03:31:33 SEF MRI F 62 F 8029
197 ROYER Marie 03:32:19 SEF MRI F 63 F 8016
198 BUNDHOO RAMESSUR Pratima 04:05:15 SEF MRI F 64 F 2724
199 MOHABEER Amrita 04:05:35 VEF MRI F 65 F 2726
200 BISSESSUR Aneesha 04:09:16 SEF MRI F 66 F 2962
201 PUNTAYA Anouska 04:41:17 SEF MRI F 67 F 2968


ReferencementCe site est listé dans la catégorie Sport : Sports extrêmes Dictionnaire
| Accueil | La Réunion  Vue du ciel | Météo | Cyclones | Volcan | Cirques de Mafate , Cilaos , Salazie | Photos Randonnées | Randonnées Réunion: Randos Espiègle , Courses montagne | Diagonale des Fous |  Marathon des Sables | Voyages Les stats du site | Fonds écran | Plan du site | Blog de runraid | Galerie photos Sport Réunion |